Comstar 204

operational
NORAD ID: 12309 Int'l Des: 1981-018 Owner: COM Country: US
HEOCIRCULARGSO

Über Comstar 204

Beschreibung wird geladen...

Live-Position

3D-Globus wird geladen...

Nächste Überflüge

Höhenverlauf

Altitude vs Time

uPlot chart will show altitude changes over time

Zweizeiliger Elementsatz

1 12309U 81018A 26061.22353896 -.00000076 00000-0 00000-0 0 9990
2 12309 8.9060 311.8987 0004027 44.5946 315.4287 1.00261522166374
Epoch: 2. März 2026 • Age: 32 hours

Aktueller Status

Höhe 35771.3 km
Geschwindigkeit 3.08 km/s
Subsatellitenpunkt 6.53°N, 71.09°E
Startdatum 21. Feb. 1981
Alter 45 years
Typ other

Technische Details

Klassifizierung Payload
Masse 748.00 kg
Trockenmasse 590.00 kg
Gesamtmasse 1490.00 kg
Länge 3.50 m
Durchmesser 2.40 m
Spannweite 6.30 m
Form Cyl + Ant
Hersteller HSES
Bus-Typ HS-351
Phasenstatus Unknown Active Status
Besitzer/Staat COM/US

Große Konstellationen

Loading constellations...